Weather History for K1P1 - February, 2013

Change the Weather History Date:

Friday, February 22, 2013

  Actual Average (KLCI) Record (KLCI)
Temperature  
Mean Temperature 24 °F -  
Max Temperature 38 °F 39 °F 62 °F (1997)
Min Temperature 11 °F 18 °F -8 °F (1993)
Degree Days  
Heating Degree Days 40    
Moisture  
Dew Point 18 °F    
Average Humidity 69    
Maximum Humidity 95    
Minimum Humidity 44    
Precipitation  
Precipitation 0.00 in - - ()
Sea Level Pressure  
Sea Level Pressure 30.30 in    
Wind  
Wind Speed 6 mph (WNW)    
Max Wind Speed 14 mph    
Max Gust Speed 25 mph    
Visibility 10 miles    
Events      
Averages and records for this station are not official NWS values.
T = Trace of Precipitation, MM = Missing Value Source: NWS Daily Summary

Daily Weather History Graph

Daily Weather History Graph

Search for Another Location

Airport or City:

Trip Planner

Search our weather history database for the weather conditions in past years. The results will help you decide how hot, cold, wet, or windy it might be!

Date:

Astronomy

Feb. 22, 2013 Rise Set
Actual Time 6:34 AM EST 5:26 PM EST
Civil Twilight 6:05 AM EST 5:55 PM EST
Nautical Twilight 5:32 AM EST 6:29 PM EST
Astronomical Twilight 4:59 AM EST 7:02 PM EST
Moon 2:31 PM EST (2/22) 4:22 AM EST (2/22)
Length of Visible Light 11h 50m
Length of Day
10h 51m
Waxing Gibbous, 90% of the Moon is Illuminated
Feb 22
Waxing Gibbous
Feb 25
Full
Mar 4
Last Quarter
Mar 11
New
Mar 19
First Quarter

Hourly Weather History & Observations

Time (EST) Temp. Windchill Dew Point Humidity Pressure Visibility Wind Dir Wind Speed Gust Speed Precip Events Conditions
12:15 AM 23.9 °F 12.9 °F 17.1 °F 75% 30.22 in 10.0 mi West 11.5 mph 25.3 mph N/A   Unknown
12:35 AM 23.9 °F 11.7 °F 17.6 °F 77% 30.24 in 10.0 mi WNW 13.8 mph 19.6 mph N/A   Unknown
12:55 AM 23.9 °F 14.2 °F 17.6 °F 77% 30.26 in 10.0 mi West 9.2 mph 16.1 mph N/A   Unknown
1:15 AM 24.4 °F 13.0 °F 18.0 °F 76% 30.27 in 10.0 mi West 12.7 mph 20.7 mph N/A   Unknown
1:35 AM 24.8 °F 13.4 °F 18.1 °F 76% 30.27 in 10.0 mi West 12.7 mph 18.4 mph N/A   Unknown
1:55 AM 24.8 °F 15.3 °F 18.3 °F 76% 30.27 in 10.0 mi WNW 9.2 mph - N/A   Unknown
2:15 AM 24.8 °F 15.3 °F 18.3 °F 76% 30.26 in 10.0 mi West 9.2 mph - N/A   Unknown
2:35 AM 25.0 °F 15.5 °F 18.3 °F 76% 30.25 in 10.0 mi WNW 9.2 mph - N/A   Unknown
2:55 AM 24.8 °F 14.0 °F 18.5 °F 77% 30.26 in 10.0 mi WNW 11.5 mph - N/A   Unknown
3:15 AM 24.3 °F 16.3 °F 18.3 °F 78% 30.26 in 10.0 mi WNW 6.9 mph - N/A   Unknown
3:35 AM 23.5 °F 15.4 °F 18.1 °F 80% 30.27 in 10.0 mi West 6.9 mph - N/A   Unknown
3:55 AM 23.9 °F 15.8 °F 18.3 °F 79% 30.27 in 10.0 mi WNW 6.9 mph - N/A   Unknown
4:15 AM 24.3 °F 17.3 °F 18.5 °F 79% 30.27 in 10.0 mi WNW 5.8 mph - N/A   Unknown
4:35 AM 23.2 °F 17.2 °F 17.8 °F 80% 30.27 in 10.0 mi WNW 4.6 mph - N/A   Unknown
5:15 AM 18.3 °F 13.1 °F 15.3 °F 88% 30.28 in 10.0 mi SSE 3.5 mph - N/A   Unknown
5:35 AM 17.2 °F - 14.9 °F 91% 30.29 in 10.0 mi Calm Calm - N/A   Unknown
5:55 AM 14.4 °F - 12.7 °F 93% 30.30 in 10.0 mi Calm Calm - N/A   Unknown
6:15 AM 12.9 °F - 11.7 °F 95% 30.31 in 10.0 mi Calm Calm - N/A   Unknown
6:35 AM 12.6 °F - 11.1 °F 94% 30.34 in 10.0 mi Calm Calm - N/A   Unknown
7:15 AM 11.1 °F - 9.0 °F 91% 30.37 in 10.0 mi Calm Calm - N/A   Unknown
7:35 AM 11.5 °F - 9.5 °F 92% 30.37 in 10.0 mi Calm Calm - N/A   Unknown
7:55 AM 13.3 °F - 11.7 °F 93% 30.38 in 10.0 mi Calm Calm - N/A   Unknown
8:15 AM 17.4 °F 12.1 °F 16.0 °F 94% 30.39 in 10.0 mi WNW 3.5 mph - N/A   Unknown
8:35 AM 25.3 °F 18.5 °F 19.0 °F 77% 30.39 in 10.0 mi WNW 5.8 mph - N/A   Unknown
8:55 AM 26.6 °F 18.2 °F 18.5 °F 71% 30.38 in 10.0 mi WNW 8.1 mph - N/A   Unknown
9:15 AM 27.3 °F 19.9 °F 18.7 °F 70% 30.37 in 10.0 mi NW 6.9 mph - N/A   Unknown
9:35 AM 28.2 °F 20.2 °F 18.5 °F 67% 30.38 in 10.0 mi WNW 8.1 mph - N/A   Unknown
9:55 AM 29.1 °F 22.1 °F 18.7 °F 65% 30.37 in 10.0 mi NW 6.9 mph - N/A   Unknown
10:15 AM 30.2 °F 24.3 °F 18.7 °F 62% 30.37 in 10.0 mi WNW 5.8 mph - N/A   Unknown
10:55 AM 32.0 °F 25.6 °F 18.1 °F 57% 30.36 in 10.0 mi NW 6.9 mph - N/A   Unknown
11:15 AM 32.9 °F 29.8 °F 17.8 °F 54% 30.35 in 10.0 mi NW 3.5 mph - N/A   Unknown
11:35 AM 33.8 °F 28.6 °F 16.2 °F 49% 30.34 in 10.0 mi NNW 5.8 mph - N/A   Unknown
11:55 AM 33.8 °F 30.8 °F 19.2 °F 55% 30.34 in 10.0 mi NW 3.5 mph - N/A   Unknown
12:15 PM 34.7 °F 30.6 °F 18.5 °F 52% 30.33 in 10.0 mi West 4.6 mph - N/A   Unknown
12:35 PM 35.1 °F - 18.3 °F 51% 30.32 in 10.0 mi Calm Calm - N/A   Unknown
12:55 PM 36.5 °F - 18.3 °F 48% 30.32 in 10.0 mi Calm Calm - N/A   Unknown
1:15 PM 37.9 °F - 18.0 °F 45% 30.31 in 10.0 mi Calm Calm - N/A   Unknown
1:35 PM 37.8 °F 35.3 °F 17.6 °F 44% 30.30 in 10.0 mi NW 3.5 mph - N/A   Unknown
1:55 PM 37.8 °F - 17.8 °F 44% 30.30 in 10.0 mi Calm Calm - N/A   Unknown
2:15 PM 37.8 °F - 17.8 °F 44% 30.30 in 10.0 mi Calm Calm - N/A   Unknown
2:35 PM 37.6 °F - 19.4 °F 48% 30.29 in 10.0 mi Calm Calm - N/A   Unknown
2:55 PM 37.9 °F - 17.6 °F 44% 30.29 in 10.0 mi Calm Calm - N/A   Unknown
3:15 PM 37.8 °F - 19.6 °F 48% 30.29 in 10.0 mi Calm Calm - N/A   Unknown
3:35 PM 38.3 °F - 18.0 °F 44% 30.29 in 10.0 mi Calm Calm - N/A   Unknown
3:55 PM 38.3 °F 35.9 °F 18.7 °F 45% 30.30 in 10.0 mi SSE 3.5 mph - N/A   Unknown
4:15 PM 37.8 °F 35.3 °F 17.8 °F 44% 30.29 in 10.0 mi SSE 3.5 mph - N/A   Unknown
4:35 PM 37.6 °F - 17.8 °F 45% 30.27 in 10.0 mi Calm Calm - N/A   Unknown
4:55 PM 37.2 °F - 17.2 °F 44% 30.27 in 10.0 mi Calm Calm - N/A   Unknown
5:15 PM 36.7 °F - 16.7 °F 44% 30.27 in 10.0 mi Calm Calm - N/A   Unknown
5:35 PM 34.5 °F - 19.0 °F 53% 30.28 in 10.0 mi Calm Calm - N/A   Unknown
6:15 PM 30.2 °F - 20.7 °F 68% 30.28 in 10.0 mi Calm Calm - N/A   Unknown
6:35 PM 29.3 °F - 21.9 °F 74% 30.29 in 10.0 mi Calm Calm - N/A   Unknown
6:55 PM 29.3 °F - 21.7 °F 73% 30.29 in 10.0 mi Calm Calm - N/A   Unknown
7:15 PM 29.1 °F - 21.9 °F 74% 30.30 in 10.0 mi Calm Calm - N/A   Unknown
7:35 PM 29.1 °F - 22.1 °F 75% 30.29 in 10.0 mi Calm Calm - N/A   Unknown
7:55 PM 28.6 °F - 22.3 °F 77% 30.29 in 10.0 mi Calm Calm - N/A   Unknown
8:15 PM 28.4 °F - 23.0 °F 80% 30.30 in 10.0 mi Calm Calm - N/A   Unknown
8:35 PM 29.1 °F - 22.5 °F 76% 30.30 in 10.0 mi Calm Calm - N/A   Unknown
8:55 PM 28.9 °F - 22.6 °F 77% 30.29 in 10.0 mi Calm Calm - N/A   Unknown
9:15 PM 30.0 °F - 21.2 °F 70% 30.30 in 10.0 mi Calm Calm - N/A   Unknown
9:35 PM 28.9 °F - 21.9 °F 75% 30.30 in 10.0 mi Calm Calm - N/A   Unknown
10:15 PM 28.8 °F - 21.9 °F 76% 30.30 in 10.0 mi Calm Calm - N/A   Unknown
10:35 PM 28.4 °F - 21.9 °F 77% 30.29 in 10.0 mi Calm Calm - N/A   Unknown
10:55 PM 28.0 °F - 22.1 °F 78% 30.30 in 10.0 mi Calm Calm - N/A   Unknown
11:15 PM 28.4 °F 24.6 °F 21.6 °F 76% 30.30 in 10.0 mi NE 3.5 mph - N/A   Unknown
11:35 PM 30.0 °F - 20.8 °F 69% 30.30 in 10.0 mi Calm Calm - N/A   Unknown
11:55 PM 30.2 °F 26.7 °F 21.2 °F 69% 30.29 in 10.0 mi ENE 3.5 mph - N/A   Unknown